CW8593 Weather Reports


Display with metric or nautical units.
time (UTC)temp
F
wind
direction
speed
MPH
gust
MPH
rain 1hr
in
rain 24hr
in
rain mn
in
humidity
%
barometer
mb
20170226052339 45 319 0.0 0.0 0.00 0.00 0.00 76 1020.4
20170226051840 45 319 0.0 1.0 0.00 0.00 0.00 76 1020.4
20170226050839 46 319 0.0 1.0 0.00 0.00 0.00 76 1020.3
20170226045839 45 319 2.0 2.0 0.00 0.00 0.00 76 1020.4
20170226044841 45 319 0.0 0.0 0.00 0.00 0.00 76 1020.4
20170226044340 45 319 0.0 0.0 0.00 0.00 0.00 76 1020.5
20170226043340 46 319 0.0 2.0 0.00 0.00 0.00 75 1020.5
20170226042840 46 319 0.0 0.0 0.00 0.00 0.00 75 1020.5
20170226042339 46 319 1.0 2.0 0.00 0.00 0.00 75 1020.5
20170226040339 46 320 0.0 0.0 0.00 0.00 0.00 75 1020.4
20170226035839 47 319 0.0 0.0 0.00 0.00 0.00 75 1020.5
20170226035339 47 319 0.0 0.0 0.00 0.00 0.00 75 1020.4
20170226034839 47 319 0.0 0.0 0.00 0.00 0.00 75 1020.4
20170226034339 47 319 0.0 0.0 0.00 0.00 0.00 75 1020.4
20170226033841 48 319 0.0 0.0 0.00 0.00 0.00 75 1020.4
20170226033340 48 319 1.0 2.0 0.00 0.00 0.00 75 1020.4
20170226025339 48 319 0.0 0.0 0.00 0.00 0.00 76 1020.6
20170226024339 48 319 0.0 0.0 0.00 0.00 0.00 76 1020.7
20170226023839 48 319 0.0 0.0 0.00 0.00 0.00 76 1020.7
20170226021839 49 319 0.0 0.0 0.00 0.00 0.00 76 1020.9
20170226021338 49 319 0.0 0.0 0.00 0.00 0.00 76 1020.9
20170226020839 50 319 0.0 3.0 0.00 0.00 0.00 76 1021.0
20170226015340 50 319 3.0 5.0 0.00 0.00 0.00 75 1020.9
20170226014840 50 319 3.0 5.0 0.00 0.00 0.00 76 1021.0
20170226014340 50 319 2.0 3.0 0.00 0.00 0.00 76 1021.0
20170226013839 50 319 3.0 5.0 0.00 0.00 0.00 75 1021.0
20170226013340 50 317 2.0 3.0 0.00 0.00 0.00 75 1021.0
20170226012840 50 317 2.0 3.0 0.00 0.00 0.00 75 1021.0
20170226012339 49 317 3.0 5.0 0.00 0.00 0.00 75 1021.0
20170226011839 49 245 0.0 3.0 0.00 0.00 0.00 76 1021.1
20170226011339 49 245 0.0 0.0 0.00 0.00 0.00 76 1021.0
20170226010339 49 245 0.0 2.0 0.00 0.00 0.00 76 1020.9
20170226004339 49 245 0.0 1.0 0.00 0.00 0.00 76 1021.1
20170226001339 48 245 0.0 1.0 0.00 0.00 0.00 76 1021.2
20170226000839 48 245 0.0 0.0 0.00 0.00 0.00 76 1021.3
20170225235839 48 245 0.0 0.0 0.00 0.00 0.00 76 1021.3
20170225235339 48 245 0.0 0.0 0.00 0.00 0.00 76 1021.3
20170225233342 49 245 0.0 0.0 0.00 0.00 0.00 75 1021.3
20170225232842 49 245 0.0 0.0 0.00 0.00 0.00 75 1021.3
20170225232340 49 245 0.0 2.0 0.00 0.00 0.00 75 1021.3
20170225231340 49 245 0.0 0.0 0.00 0.00 0.00 75 1021.2
20170225225841 49 245 0.0 0.0 0.00 0.00 0.00 75 1021.2
20170225224842 49 245 0.0 1.0 0.00 0.00 0.00 75 1021.2
20170225224340 49 245 0.0 2.0 0.00 0.00 0.00 74 1021.1
20170225223840 49 245 1.0 3.0 0.00 0.00 0.00 74 1021.2
20170225223340 50 245 0.0 0.0 0.00 0.00 0.00 74 1021.2
20170225221839 50 245 0.0 2.0 0.00 0.00 0.00 73 1021.1
20170225220841 51 245 2.0 3.0 0.00 0.00 0.00 73 1021.1
20170225215840 51 245 2.0 3.0 0.00 0.00 0.00 73 1021.1
20170225214840 51 243 3.0 5.0 0.00 0.00 0.00 73 1021.1
20170225214339 51 242 2.0 3.0 0.00 0.00 0.00 73 1021.1
20170225213340 50 241 1.0 3.0 0.00 0.00 0.00 73 1021.1
20170225212340 51 241 2.0 3.0 0.00 0.00 0.00 73 1021.0
20170225211840 51 241 0.0 1.0 0.00 0.00 0.00 73 1021.0
20170225211342 51 241 2.0 3.0 0.00 0.00 0.00 73 1020.9
20170225210841 50 241 2.0 3.0 0.00 0.00 0.00 74 1020.9
20170225205839 50 241 3.0 5.0 0.00 0.00 0.00 75 1021.0
20170225205339 49 221 3.0 5.0 0.00 0.00 0.00 75 1021.0
20170225203338 49 211 1.0 3.0 0.00 0.00 0.00 75 1020.9
20170225202339 50 211 1.0 3.0 0.00 0.00 0.00 75 1020.8
20170225201339 50 211 1.0 2.0 0.00 0.00 0.00 75 1020.8
20170225200339 50 211 0.0 0.0 0.00 0.00 0.00 75 1020.7
20170225194838 50 211 0.0 0.0 0.00 0.00 0.00 75 1020.7
20170225194339 50 211 0.0 0.0 0.00 0.00 0.00 75 1020.7
20170225192839 50 211 1.0 3.0 0.00 0.00 0.00 75 1020.6
20170225192339 50 211 2.0 3.0 0.00 0.00 0.00 75 1020.6
20170225191839 50 211 0.0 1.0 0.00 0.01 0.00 75 1020.7
20170225191338 50 211 0.0 0.0 0.00 0.01 0.00 75 1020.7
20170225190340 50 211 1.0 3.0 0.00 0.01 0.00 75 1020.7
20170225185339 50 211 2.0 3.0 0.00 0.01 0.00 75 1020.7
20170225184839 50 211 1.0 2.0 0.00 0.01 0.00 75 1020.7
20170225184339 50 211 2.0 3.0 0.00 0.01 0.00 75 1020.6
20170225183839 50 211 2.0 3.0 0.00 0.01 0.00 74 1020.6
20170225182838 51 211 2.0 3.0 0.00 0.01 0.00 74 1020.5
20170225181338 51 211 1.0 2.0 0.00 0.01 0.00 74 1020.4
20170225180839 51 211 0.0 2.0 0.00 0.01 0.00 74 1020.4
20170225175839 52 211 2.0 3.0 0.00 0.01 0.00 74 1020.3
20170225175339 52 211 1.0 3.0 0.00 0.01 0.00 73 1020.2
20170225174839 53 211 2.0 3.0 0.00 0.01 0.00 73 1020.2
20170225173838 54 211 0.0 0.0 0.00 0.01 0.00 72 1020.1
20170225172838 54 211 2.0 5.0 0.00 0.01 0.00 71 1020.0
20170225172339 54 211 2.0 3.0 0.00 0.01 0.00 71 1019.9
20170225171839 54 211 1.0 6.0 0.00 0.01 0.00 71 1019.9
20170225171339 54 211 3.0 6.0 0.00 0.01 0.00 71 1019.7
20170225170840 54 211 3.0 7.0 0.00 0.01 0.00 70 1019.7
20170225165838 55 213 3.0 8.0 0.00 0.01 0.00 69 1019.6
20170225165338 55 195 2.0 7.0 0.00 0.01 0.00 69 1019.5
20170225163338 56 190 3.0 7.0 0.00 0.01 0.00 69 1019.4
20170225162839 56 168 5.0 8.0 0.00 0.01 0.00 68 1019.4
20170225161840 56 214 3.0 9.0 0.00 0.01 0.00 68 1019.3
20170225160838 56 196 7.0 10.0 0.00 0.01 0.00 67 1019.3
20170225160339 56 193 5.0 8.0 0.00 0.01 0.00 67 1019.3
20170225155838 56 199 3.0 7.0 0.00 0.01 0.00 68 1019.3
20170225155339 56 193 3.0 8.0 0.00 0.01 0.00 68 1019.4
20170225154838 56 189 4.0 7.0 0.00 0.01 0.00 68 1019.5
20170225152839 56 192 5.0 9.0 0.00 0.01 0.00 66 1019.4
20170225152338 56 188 4.0 8.0 0.00 0.01 0.00 65 1019.5
20170225151839 56 168 3.0 7.0 0.00 0.01 0.00 65 1019.5
20170225150839 56 204 5.0 8.0 0.00 0.01 0.00 65 1019.4
20170225150339 57 199 3.0 8.0 0.00 0.01 0.00 65 1019.5
20170225145338 57 203 3.0 7.0 0.00 0.01 0.00 65 1019.4
20170225144839 56 190 3.0 9.0 0.00 0.01 0.00 65 1019.4
20170225144338 56 208 6.0 10.0 0.00 0.01 0.00 64 1019.4
20170225143840 57 176 5.0 9.0 0.00 0.01 0.00 65 1019.4
20170225143338 57 217 3.0 9.0 0.00 0.01 0.00 65 1019.5
20170225141339 56 226 6.0 9.0 0.00 0.02 0.00 66 1019.5
20170225140838 56 199 4.0 8.0 0.00 0.02 0.00 67 1019.6
20170225140338 56 169 3.0 10.0 0.00 0.02 0.00 67 1019.6
20170225135839 56 165 3.0 7.0 0.00 0.02 0.00 67 1019.6
20170225135339 56 179 6.0 9.0 0.00 0.02 0.00 66 1019.6
20170225134839 56 159 5.0 9.0 0.00 0.02 0.00 66 1019.7
20170225134338 56 232 4.0 7.0 0.00 0.02 0.00 67 1019.7
20170225132840 55 134 3.0 12.0 0.00 0.02 0.00 68 1019.7
20170225131338 55 160 3.0 9.0 0.00 0.03 0.00 67 1019.7
20170225130839 55 217 4.0 9.0 0.00 0.03 0.00 64 1019.7
20170225125338 55 166 1.0 7.0 0.00 0.06 0.00 62 1019.8
20170225124838 55 165 3.0 9.0 0.00 0.06 0.00 63 1019.9
20170225124339 55 135 5.0 9.0 0.00 0.08 0.00 63 1019.8
20170225122338 54 147 6.0 9.0 0.00 0.11 0.00 63 1019.9
20170225121338 55 137 5.0 10.0 0.00 0.11 0.00 64 1019.9
20170225120338 55 137 6.0 10.0 0.00 0.11 0.00 63 1019.8
20170225115838 55 138 9.0 13.0 0.00 0.12 0.00 63 1019.9
20170225115338 55 74 3.0 8.0 0.00 0.12 0.00 62 1019.9
20170225114838 55 137 2.0 8.0 0.00 0.13 0.00 63 1019.9
20170225114338 55 151 5.0 9.0 0.00 0.13 0.00 63 1019.9
20170225112338 55 171 3.0 8.0 0.00 0.17 0.00 60 1019.9
20170225111838 55 78 1.0 6.0 0.00 0.17 0.00 62 1020.0
20170225111338 54 57 1.0 7.0 0.00 0.19 0.00 62 1019.9
20170225110838 54 107 3.0 8.0 0.00 0.20 0.00 61 1019.9
20170225110338 54 85 2.0 6.0 0.00 0.21 0.00 61 1019.9
20170225105838 54 54 1.0 3.0 0.00 0.22 0.00 63 1019.9
20170225105338 53 54 4.0 9.0 0.00 0.23 0.00 63 1019.9
20170225104338 53 48 7.0 14.0 0.00 0.24 0.00 63 1019.8
20170225103838 53 82 8.0 15.0 0.00 0.25 0.00 63 1019.7
20170225103339 53 84 7.0 18.0 0.00 0.26 0.00 62 1019.9
20170225102838 53 115 7.0 18.0 0.00 0.28 0.00 63 1019.7
20170225100838 54 99 3.0 7.0 0.00 0.30 0.00 63 1019.4
20170225100338 53 48 4.0 7.0 0.00 0.31 0.00 63 1019.5
20170225093838 52 58 9.0 12.0 0.00 0.35 0.00 62 1019.4
20170225093338 53 45 5.0 8.0 0.00 0.35 0.00 63 1019.4
20170225091838 52 6 6.0 10.0 0.00 0.35 0.00 64 1019.2
20170225091338 52 11 5.0 9.0 0.00 0.36 0.00 65 1019.2
20170225090838 51 322 6.0 8.0 0.00 0.39 0.00 65 1019.2
20170225085339 51 343 5.0 10.0 0.00 0.50 0.00 66 1019.0
20170225084338 50 312 5.0 14.0 0.00 0.51 0.00 67 1018.8
20170225083338 50 338 5.0 9.0 0.00 0.62 0.00 68 1019.0
20170225082838 49 354 6.0 10.0 0.00 0.63 0.00 68 1018.9
20170225081838 49 319 5.0 9.0 0.00 0.63 0.00 68 1018.9
20170225080838 48 318 7.0 12.0 0.00 0.63 0.00 69 1018.7
20170225080338 48 349 7.0 13.0 0.00 0.63 0.00 68 1018.6
20170225075838 48 327 7.0 12.0 0.00 0.64 0.00 69 1018.5
20170225075338 47 319 6.0 10.0 0.00 0.64 0.00 69 1018.6
20170225074839 47 333 6.0 12.0 0.00 0.65 0.00 69 1018.4
20170225074337 47 345 7.0 12.0 0.00 0.65 0.00 69 1018.4
20170225072838 46 314 5.0 13.0 0.00 0.65 0.00 70 1018.1
20170225072337 46 328 6.0 9.0 0.00 0.65 0.00 70 1018.1
20170225070837 45 308 7.0 12.0 0.00 0.65 0.00 71 1017.9
20170225070337 45 315 8.0 14.0 0.00 0.65 0.00 72 1018.0
20170225065839 45 313 8.0 14.0 0.00 0.66 0.00 72 1017.6
20170225065338 45 307 6.0 13.0 0.00 0.66 0.00 72 1017.6
20170225064838 45 312 7.0 12.0 0.00 0.66 0.00 72 1017.7
20170225063838 45 318 6.0 12.0 0.00 0.67 0.00 73 1017.5
20170225062838 45 306 3.0 6.0 0.00 0.68 0.00 72 1017.7
20170225062338 45 295 4.0 7.0 0.00 0.69 0.00 72 1017.5
20170225060839 46 0 3.0 5.0 0.00 0.69 0.00 70 1017.3
20170225055338 46 342 3.0 8.0 0.00 0.70 0.00 71 1017.1
20170225053838 46 14 6.0 7.0 0.00 0.70 0.00 70 1016.9
20170225053338 47 12 3.0 7.0 0.00 0.70 0.00 69 1016.9
20170225052838 47 4 5.0 7.0 0.00 0.70 0.00 69 1016.6